White Mountain, AK

5:43 AM AKST on February 06, 2016 (GMT -0900)
White Mountain

Weather History for PAWM - February, 2014

Change the Weather History Date:

Sunday, February 16, 2014

  Actual Average (PAKK) Record (PAKK)
Temperature  
Mean Temperature 4 °F -  
Max Temperature 9 °F 14 °F 35 °F (2001)
Min Temperature 0 °F 6 °F -16 °F (2009)
Degree Days  
Heating Degree Days 60    
Moisture  
Dew Point -2 °F    
Average Humidity 76    
Maximum Humidity 85    
Minimum Humidity 67    
Precipitation  
Precipitation 0.00 in - - ()
Sea Level Pressure  
Sea Level Pressure 29.14 in    
Wind  
Wind Speed 11 mph (North)    
Max Wind Speed 16 mph    
Max Gust Speed 24 mph    
Visibility 6 miles    
Events Snow    
Averages and records for this station are not official NWS values.
T = Trace of Precipitation, MM = Missing Value Source: NWS Daily Summary

Daily Weather History Graph

Daily Weather History Graph

Search for Another Location

Airport or City:

Trip Planner

Search our weather history database for the weather conditions in past years. The results will help you decide how hot, cold, wet, or windy it might be!

Date:

Astronomy

Feb. 16, 2014 Rise Set
Actual Time 9:47 AM AKST 6:29 PM AKST
Civil Twilight 8:55 AM AKST 7:21 PM AKST
Nautical Twilight 7:58 AM AKST 8:18 PM AKST
Astronomical Twilight 7:02 AM AKST 9:15 PM AKST
Moon 9:42 PM AKST (2/16) 9:29 AM AKST (2/16)
Length of Visible Light 10h 26m
Length of Day
8h 42m
Full, 97% of the Moon is Illuminated
Feb 16
Full
Feb 22
Last Quarter
Feb 28
New
Mar 8
First Quarter
Mar 16
Full

Hourly Weather History & Observations

Time (AKST) Temp. Windchill Dew Point Humidity Pressure Visibility Wind Dir Wind Speed Gust Speed Precip Events Conditions
12:58 AM -0.9 °F -18.3 °F -7.1 °F 75% 29.08 in 5.0 mi NNW 11.5 mph - 0.00 in Snow Light Snow
1:39 AM -0.4 °F -16.7 °F -5.8 °F 78% 29.04 in 2.5 mi North 10.4 mph - 0.00 in Snow Light Snow
1:44 AM -0.4 °F -17.6 °F -5.8 °F 78% 29.04 in 3.0 mi North 11.5 mph - 0.00 in Snow Light Snow
1:53 AM -0.4 °F -19.9 °F -5.8 °F 78% 29.03 in 2.5 mi North 15.0 mph 23.0 mph 0.00 in Snow Light Snow
1:58 AM -0.0 °F -18.0 °F -5.1 °F 79% 29.07 in 2.0 mi North 12.7 mph 23.0 mph 0.00 in Snow Light Snow
2:04 AM -0.4 °F -18.4 °F -4.0 °F 85% 29.04 in 1.8 mi North 12.7 mph 18.4 mph 0.00 in Snow Light Snow
2:13 AM 1.4 °F -15.3 °F -2.2 °F 85% 29.04 in 2.0 mi North 11.5 mph 20.7 mph 0.00 in Snow Light Snow
2:22 AM -0.4 °F -19.2 °F -4.0 °F 85% 29.04 in 3.0 mi North 13.8 mph 19.6 mph 0.00 in Snow Light Snow
2:47 AM 1.4 °F -16.1 °F -2.2 °F 85% 29.03 in 3.0 mi North 12.7 mph - 0.00 in Snow Light Snow
2:58 AM 1.0 °F -14.0 °F -2.9 °F 83% 29.07 in 5.0 mi NNW 9.2 mph - 0.00 in Snow Light Snow
3:41 AM 3.2 °F -15.9 °F -2.2 °F 78% 29.03 in 2.5 mi North 16.1 mph 23.0 mph 0.00 in Snow Light Snow
3:49 AM 3.2 °F -15.9 °F -2.2 °F 78% 29.04 in 3.0 mi North 16.1 mph 24.2 mph 0.00 in Snow Light Snow
3:58 AM 3.0 °F -16.1 °F -2.0 °F 80% 29.07 in 4.0 mi North 16.1 mph 21.9 mph 0.00 in Snow Light Snow
4:58 AM 3.0 °F -10.5 °F -2.0 °F 80% 29.09 in 7.0 mi North 8.1 mph - 0.00 in Snow Light Snow
5:58 AM 3.9 °F -13.7 °F -2.9 °F 73% 29.09 in 6.0 mi North 13.8 mph 21.9 mph 0.00 in Snow Light Snow
6:58 AM 3.9 °F -10.4 °F -2.9 °F 73% 29.10 in 9.0 mi North 9.2 mph 17.3 mph 0.00 in Snow Light Snow
7:47 AM 5.0 °F -10.0 °F -0.4 °F 78% 29.07 in 2.5 mi North 10.4 mph 20.7 mph 0.00 in Snow Light Snow
7:58 AM 3.9 °F -13.7 °F -0.9 °F 80% 29.11 in 2.5 mi North 13.8 mph 18.4 mph 0.00 in Snow Light Snow
8:04 AM 5.0 °F -12.3 °F -0.4 °F 78% 29.07 in 3.0 mi NNE 13.8 mph 20.7 mph 0.00 in Snow Light Snow
8:15 AM 5.0 °F -10.0 °F -0.4 °F 78% 29.08 in 6.0 mi NNE 10.4 mph 19.6 mph 0.00 in Snow Light Snow
8:58 AM 5.0 °F -10.8 °F -0.9 °F 76% 29.12 in 8.0 mi North 11.5 mph 17.3 mph 0.00 in Snow Light Snow
9:58 AM 5.0 °F -11.6 °F -2.0 °F 73% 29.14 in 7.0 mi North 12.7 mph 18.4 mph 0.00 in Snow Light Snow
10:54 AM 6.8 °F -7.8 °F -0.4 °F 72% 29.12 in 2.5 mi North 10.4 mph - 0.00 in Snow Light Snow
10:58 AM 6.1 °F -9.5 °F -0.0 °F 76% 29.16 in 2.0 mi North 11.5 mph - 0.00 in Snow Light Snow
11:10 AM 6.8 °F -10.0 °F -0.4 °F 72% 29.13 in 3.0 mi North 13.8 mph - 0.00 in Snow Light Snow
11:27 AM 6.8 °F -9.3 °F -0.4 °F 72% 29.13 in 2.5 mi North 12.7 mph - 0.00 in Snow Light Snow
11:57 AM 6.1 °F -7.8 °F 1.0 °F 80% 29.18 in 3.0 mi North 9.2 mph - 0.00 in Snow Light Snow
12:04 PM 6.8 °F -5.9 °F 1.4 °F 79% 29.15 in 3.0 mi North 8.1 mph - 0.00 in Snow Light Snow
12:10 PM 6.8 °F -7.8 °F 1.4 °F 79% 29.15 in 4.0 mi North 10.4 mph - 0.00 in Snow Light Snow
12:58 PM 7.0 °F -7.5 °F -0.0 °F 73% 29.19 in 7.0 mi North 10.4 mph - 0.00 in Snow Light Snow
1:58 PM 8.1 °F -3.2 °F 1.0 °F 73% 29.21 in 10.0 mi North 6.9 mph - 0.00 in   Overcast
2:58 PM 9.0 °F 0.6 °F 1.0 °F 70% 29.22 in 10.0 mi North 4.6 mph - N/A   Mostly Cloudy
3:58 PM 9.0 °F -7.3 °F -0.0 °F 67% 29.23 in 9.0 mi North 13.8 mph 19.6 mph N/A   Scattered Clouds
4:58 PM 8.1 °F -3.2 °F -0.9 °F 67% 29.25 in 10.0 mi Variable 6.9 mph - N/A   Clear
5:58 PM 6.1 °F -0.9 °F -2.0 °F 69% 29.26 in 10.0 mi Variable 3.5 mph - N/A   Overcast
6:58 PM 5.0 °F -10.0 °F -2.9 °F 70% 29.27 in 10.0 mi North 10.4 mph - N/A   Mostly Cloudy
7:58 PM 3.9 °F -10.4 °F -4.0 °F 70% 29.28 in 10.0 mi North 9.2 mph - N/A   Partly Cloudy
8:58 PM 3.0 °F -14.1 °F -4.0 °F 73% 29.29 in 9.0 mi North 12.7 mph - N/A   Overcast
9:58 PM -0.0 °F -13.0 °F -5.1 °F 79% 29.31 in 10.0 mi North 6.9 mph - N/A   Clear
10:58 PM -0.9 °F -16.4 °F -6.0 °F 79% 29.32 in 10.0 mi North 9.2 mph - N/A   Clear
11:58 PM -0.9 °F -16.4 °F -6.0 °F 79% 29.33 in 10.0 mi North 9.2 mph - N/A   Clear